Theta_e
324 316 314 313 313 316 321 323 321 324 323 319 317 317 318 319 320 320 319 318 321 324 326 327 328 327 327 325 326 329 329 331 331 331 323 320 319 318 319 318 316 316 316
325 324 316 313 313 314 319 319 323 325 327 319 318 318 317 316 316 318 319 320 318 317 322 326 327 328 328 327 328 328 330 332 332 332 332 328 325 317 315 317 317 316 316
327 327 323 319 315 314 322 326 325 326 324 321 325 327 327 325 322 318 317 318 319 320 320 320 324 325 327 328 327 327 328 328 331 330 329 331 328 319 317 316 317 317 316
328 327 327 327 327 323 324 322 321 323 323 324 327 327 326 326 326 326 324 320 318 318 319 320 320 320 322 324 327 326 327 327 328 327 331 328 328 323 320 317 316 315 314
328 327 327 327 325 326 329 324 321 323 325 326 327 326 324 322 321 321 321 324 324 323 321 319 319 320 321 320 321 324 324 325 326 324 330 328 328 325 324 320 317 315 313
327 326 326 326 325 320 319 325 325 325 326 327 325 322 320 317 314 314 314 314 316 319 322 323 323 322 322 321 320 319 319 321 322 329 331 329 327 328 326 323 320 318 316
326 326 325 323 321 318 315 317 324 327 326 323 319 313 305 304 305 306 306 307 307 309 311 314 319 322 321 321 321 322 320 322 324 327 330 330 330 330 327 325 323 321 320
327 323 318 313 309 308 307 310 316 322 322 315 308 304 305 306 308 308 309 308 307 307 308 313 314 315 316 318 321 323 323 326 328 329 329 329 330 330 330 329 326 325 324
321 312 306 305 303 304 307 309 312 313 311 306 306 308 309 309 308 308 310 311 309 309 309 310 311 311 312 313 317 321 322 324 325 327 327 326 326 328 329 329 329 329 327
315 311 306 304 303 304 306 307 306 305 304 306 308 308 310 309 309 309 311 310 310 310 309 309 309 308 308 308 312 316 318 320 320 321 321 322 320 321 323 326 327 329 330
316 314 307 307 306 305 305 306 306 305 306 307 308 309 310 310 310 309 309 310 310 310 310 310 309 309 309 309 309 309 309 310 310 309 309 309 308 308 309 316 324 327 327
316 313 308 310 310 308 306 303 305 306 306 309 310 311 310 310 310 310 309 309 309 310 310 310 309 309 308 309 310 310 310 309 309 309 309 310 310 309 307 307 313 320 324
316 314 308 310 311 310 308 305 305 306 307 309 310 310 310 310 309 308 307 307 307 308 309 309 309 307 307 308 309 310 310 310 311 310 310 311 311 311 310 308 307 309 320
317 314 310 309 310 311 309 306 306 307 308 309 309 310 310 309 308 306 304 304 304 304 305 306 307 305 306 308 307 307 308 308 309 311 311 311 311 310 310 310 309 308 307
316 313 306 308 310 309 308 307 306 309 310 309 309 308 308 307 307 304 304 305 305 305 304 304 304 304 304 304 305 305 306 307 309 311 311 310 310 310 310 310 309 311 308
316 312 308 306 309 308 308 307 305 308 310 309 308 307 305 306 306 305 307 307 307 307 307 306 304 304 304 304 304 304 305 307 308 310 311 309 310 310 310 309 308 308 308
314 312 307 305 308 308 308 306 305 306 307 308 308 308 305 305 306 307 307 308 308 308 308 308 308 306 304 304 304 304 307 307 308 310 310 309 310 310 309 308 308 308 308
314 312 309 305 306 307 306 306 304 304 305 307 308 307 306 306 306 307 307 308 308 308 308 309 308 308 308 305 304 303 305 307 306 305 308 309 308 308 307 307 308 308 308
314 313 311 305 305 305 307 308 308 307 306 304 305 307 308 307 306 306 307 308 308 308 308 308 308 308 308 307 305 303 302 301 301 300 303 304 303 303 304 305 305 305 305
314 313 313 306 305 306 308 309 310 310 309 307 306 305 306 307 307 307 307 308 308 308 308 308 307 308 308 307 306 303 302 301 301 300 299 300 300 300 299 299 300 301 301
314 314 313 308 305 306 307 309 310 310 310 309 309 308 305 306 307 307 307 307 307 307 307 306 306 306 306 306 306 305 302 301 300 299 298 298 297 297 296 296 297 297 298
316 314 313 311 308 306 307 308 309 310 310 311 311 311 305 306 307 307 307 307 307 306 306 306 305 304 303 303 300 299 298 299 299 298 297 295 296 294 294 293 293 295 296
315 315 314 313 310 308 307 308 309 311 311 311 311 312 312 309 306 307 308 307 306 305 305 304 303 302 301 299 297 296 296 295 294 295 294 294 293 292 292 292 292 293 295
315 314 314 313 312 309 307 307 309 310 311 311 312 312 313 310 310 310 309 307 306 305 304 302 301 300 299 298 296 295 295 294 294 294 293 293 293 292 292 292 292 291 292
315 315 314 313 312 311 308 307 311 312 312 312 312 312 313 312 312 311 310 308 306 304 302 301 299 298 298 296 296 296 295 295 294 294 294 294 292 292 292 292 292 292 291
316 314 314 313 313 312 311 308 311 312 312 313 312 312 312 312 312 311 309 307 303 302 301 299 298 297 296 296 296 296 295 295 294 294 294 294 293 293 292 292 293 292 291
Wind_Speed
5 7 4 3 2 3 2 5 7 8 7 8 9 9 9 9 9 9 10 7 7 8 9 11 12 11 12 12 12 12 12 11 10 11 11 12 12 11 10 11 9 7 6
7 7 5 4 4 4 6 8 8 7 7 10 10 10 10 9 9 9 9 8 9 8 8 9 10 10 9 9 8 8 9 9 9 8 6 10 13 13 12 11 9 7 6
7 5 4 5 6 7 10 8 7 6 7 9 11 12 12 12 11 10 9 8 8 8 9 8 7 7 6 6 5 6 7 9 8 10 7 7 9 10 11 10 9 8 7
6 3 4 6 7 8 8 6 6 6 6 8 9 10 11 11 11 11 10 9 8 8 7 7 7 6 4 3 3 3 4 4 7 9 9 6 7 8 10 10 9 8 7
4 2 3 4 5 6 6 6 5 6 6 7 8 9 10 10 10 10 10 10 9 8 7 6 6 5 3 2 2 2 3 4 5 7 6 6 4 6 8 8 7 7 6
4 2 3 2 3 3 4 4 5 5 6 8 9 10 10 10 10 9 9 9 8 8 8 8 7 5 5 6 5 4 4 4 5 7 6 5 6 4 6 5 6 6 6
5 4 2 2 2 3 3 4 5 6 7 8 8 9 12 12 12 12 12 10 10 10 10 10 9 7 8 8 7 6 5 5 5 6 6 4 4 7 6 5 3 4 5
5 4 3 2 3 3 4 5 6 6 8 8 10 14 17 17 16 15 15 14 12 11 10 10 10 9 10 11 9 7 7 8 7 5 5 5 5 6 5 5 6 6 5
4 2 4 5 6 7 8 8 8 7 9 12 15 17 17 17 15 14 13 13 13 13 14 17 13 9 10 11 11 9 8 7 5 6 6 7 7 7 7 7 6 6 8
7 6 6 8 10 10 10 10 10 10 12 16 14 14 14 13 13 12 12 12 13 13 14 15 17 18 16 13 11 11 11 10 9 8 9 10 12 11 8 7 7 6 8
8 6 8 10 11 11 10 10 10 12 14 14 12 12 10 11 11 11 10 9 12 12 14 14 13 15 15 17 18 17 18 17 16 16 15 15 15 14 13 12 8 7 7
7 6 7 8 9 10 10 9 11 13 12 13 12 11 9 8 10 10 12 11 11 10 12 13 14 14 15 15 14 14 16 18 19 20 21 19 19 19 17 13 12 10 8
5 5 7 8 7 8 9 9 11 11 11 12 10 7 6 6 7 10 12 12 12 11 11 12 13 16 14 14 14 13 13 13 16 19 21 21 22 24 23 17 15 11 7
7 4 3 8 7 7 6 8 9 11 11 10 9 7 4 6 9 11 14 14 15 14 14 13 13 15 14 12 12 14 14 14 13 13 14 16 20 21 20 19 19 19 13
10 6 6 7 7 6 5 5 8 9 9 9 9 8 5 7 10 11 14 15 17 16 16 15 15 15 14 14 14 15 14 12 12 9 9 11 12 13 15 18 19 17 18
11 8 8 10 9 7 5 6 8 9 9 8 9 9 7 9 10 11 13 15 16 16 16 16 16 16 15 15 15 16 14 12 11 7 7 7 5 7 10 13 15 14 16
11 8 9 12 12 9 7 9 10 11 10 10 8 8 6 8 9 10 11 12 15 15 16 16 17 15 15 16 16 14 13 13 9 6 8 7 6 7 8 9 10 12 12
14 8 9 13 13 11 10 11 12 12 10 9 8 6 5 6 7 7 7 9 12 12 14 16 17 17 18 16 16 14 12 11 10 10 9 6 6 7 7 5 4 8 8
14 10 9 13 15 15 15 13 12 11 9 8 6 5 4 4 5 4 5 8 9 10 13 16 17 19 19 17 14 13 11 12 8 12 8 7 7 7 6 4 4 5 6
15 11 8 13 16 17 17 16 13 11 10 7 4 3 2 1 1 2 4 7 8 10 12 14 16 17 19 19 17 14 13 11 9 16 11 8 10 11 11 10 8 8 8
20 16 13 14 18 18 19 18 16 13 11 8 4 1 3 2 3 4 6 9 10 12 14 16 18 18 20 21 22 20 15 10 14 18 17 13 19 14 17 17 15 13 10
24 19 16 14 16 17 17 17 15 13 10 7 4 3 4 5 5 6 9 11 12 13 14 18 19 21 22 23 21 16 12 17 4 24 14 23 20 23 22 19 17 15 11
30 24 19 15 14 15 18 18 19 16 13 11 9 6 6 8 7 7 11 12 12 13 17 20 21 22 21 20 18 15 8 7 25 8 23 17 25 24 23 19 16 11 6
34 27 22 17 14 14 19 19 20 19 17 11 7 8 9 8 8 10 11 12 13 16 19 20 21 22 22 21 17 16 15 16 16 15 12 26 24 22 23 24 21 14 12
36 31 24 19 16 15 18 20 20 18 14 14 13 13 13 11 11 12 12 13 16 18 20 21 21 21 22 19 18 19 18 18 19 23 28 24 26 25 24 23 23 20 15
38 33 27 22 18 16 17 20 21 16 13 15 16 15 16 12 12 13 12 14 15 18 20 20 23 23 21 20 18 18 18 20 20 21 24 28 28 23 22 26 27 22 17
Wind_Direction
61 53 49 48 57 63 103 89 85 71 58 63 66 63 62 61 60 58 57 50 52 69 72 71 68 65 65 66 71 74 71 69 62 60 55 54 53 50 46 38 39 40 64
87 60 66 77 84 89 117 100 90 87 70 68 75 75 73 70 68 65 59 53 48 62 67 69 69 63 64 63 63 64 60 54 53 47 45 51 42 40 39 35 35 46 45
97 64 76 94 94 99 106 118 117 102 77 68 66 65 65 63 58 54 54 55 56 57 60 63 69 72 63 61 60 55 45 35 35 24 36 49 37 41 47 44 34 28 36
106 90 100 89 89 91 99 103 102 94 79 71 68 66 62 58 58 58 55 53 54 55 55 55 58 63 51 36 49 51 46 23 4 17 35 51 30 33 40 40 36 27 20
138 129 117 99 91 98 113 102 109 96 78 69 59 51 47 47 47 47 49 51 52 51 51 53 57 61 56 41 2 1 11 7 353 5 39 88 30 18 19 37 34 30 20
164 163 162 126 111 105 113 107 100 92 73 62 51 42 40 42 47 51 55 57 56 54 48 43 41 35 23 26 24 14 15 21 24 51 75 38 15 346 351 28 25 25 16
207 192 183 156 155 156 151 129 121 106 86 65 54 59 71 74 74 71 72 70 71 64 60 54 46 31 24 22 29 29 32 50 57 68 70 41 5 323 334 346 5 11 7
212 191 157 154 165 167 158 152 145 129 109 88 83 89 89 84 77 73 71 63 62 62 62 62 54 40 37 37 43 55 68 68 66 69 54 34 357 343 324 327 338 339 335
170 133 120 127 117 118 126 129 126 120 116 114 106 100 95 87 80 73 71 69 65 72 73 67 54 31 25 26 27 30 38 46 30 33 22 16 11 6 358 339 317 324 317
128 95 107 122 116 116 118 117 117 113 114 126 116 110 104 96 83 81 80 71 64 69 76 75 69 66 59 57 49 36 28 20 16 8 359 352 348 335 335 336 336 328 308
139 106 125 114 116 117 116 125 125 117 117 119 117 106 102 89 83 72 77 69 65 61 67 70 70 65 59 59 63 57 44 31 14 7 360 1 356 348 341 330 320 304 313
152 128 147 137 123 119 108 121 130 129 123 114 108 104 100 88 76 71 72 72 76 65 56 55 56 51 49 48 46 48 46 39 32 24 21 17 13 13 6 353 343 311 326
149 144 149 165 145 128 110 118 129 133 132 133 121 115 99 79 66 74 81 77 75 69 59 50 43 36 33 38 34 29 27 30 33 28 21 13 11 11 9 8 8 358 4
176 173 185 174 169 152 123 120 134 137 140 139 134 139 134 99 89 81 76 72 68 62 57 54 49 39 36 31 20 12 10 13 18 28 22 15 7 9 11 11 12 9 355
186 188 192 189 172 153 135 124 151 142 139 136 136 132 126 104 92 82 77 73 67 61 58 56 50 43 40 30 25 22 12 2 10 15 25 16 12 9 6 1 3 11 359
192 195 201 187 182 173 139 137 143 154 151 147 133 126 113 108 92 85 79 71 64 56 54 51 48 45 41 28 23 23 18 6 2 355 4 18 14 358 359 353 355 0 356
190 203 200 192 184 182 171 165 156 147 149 163 145 129 120 107 99 88 75 68 62 55 51 49 46 41 41 31 23 21 22 23 19 353 336 333 335 336 344 344 347 348 351
199 207 203 195 190 189 177 162 148 143 149 164 158 145 126 98 96 79 71 64 55 39 32 30 28 29 30 28 17 12 5 2 3 1 344 324 315 317 324 344 355 340 342
205 210 204 198 195 185 174 166 157 151 149 153 163 166 127 105 86 67 53 48 39 20 14 13 8 9 12 16 17 3 348 350 357 4 346 355 5 2 1 340 326 323 328
207 206 206 200 194 183 180 175 173 173 172 167 156 183 184 173 44 16 12 9 3 357 359 3 3 360 358 356 0 357 345 343 324 349 339 332 336 339 343 337 327 314 313
210 210 210 201 193 195 189 184 185 189 188 187 184 265 248 252 289 319 335 338 336 339 349 355 352 350 348 348 343 342 337 322 323 331 327 320 321 317 328 324 325 322 312
216 213 211 207 207 200 197 192 199 198 201 204 224 280 273 279 280 305 320 323 330 335 344 346 347 350 350 348 351 346 332 329 286 325 318 325 320 319 320 331 326 322 320
214 216 215 212 211 206 196 195 196 202 207 213 228 248 279 286 275 305 317 319 323 330 339 344 344 344 347 350 351 356 336 315 326 319 310 314 320 327 332 331 338 345 321
219 215 215 215 212 208 204 204 205 210 213 219 243 265 271 272 278 307 316 318 321 328 335 339 341 341 342 342 343 343 336 327 326 318 306 314 318 320 328 329 337 325 308
218 216 215 215 214 212 210 209 206 214 234 244 246 256 265 264 283 304 309 315 320 325 330 334 339 339 336 340 340 333 328 322 317 313 312 310 307 309 313 313 324 329 315
218 216 215 213 215 215 212 210 212 223 232 239 243 255 253 258 284 292 301 306 315 320 323 329 329 328 330 325 318 311 307 304 300 301 302 303 310 296 301 303 304 312 312